sat.trackr.live / text

‹ back to catalog

FLOCK 4H-27

NORAD 66730 · 2025-276BS

PAYLOAD ACTIVE UNKNOWN

§ Identity

Operator
Country
US
Launch date
2025-11-28
Launch site
AFWTR
Launch vehicle
Mass (kg)
RCS (m²)

Purposes: earth_obs

External: N2YO · Heavens-Above · Gunter

§ Orbital elements

Epoch: 2026-09-20T04:35:31.623936Z

Period
94.65 min
Inclination
97.4089°
Eccentricity
0.0001564
Mean motion
15.21474726 rev/d
Perigee alt
500.3 km
Apogee alt
502.5 km
Semi-major
6,879.5 km
B*
1.7691e-4
RAAN
335.3251°
Arg perigee
74.1016°
Mean anomaly
286.0392°
Rev number
4,487

§ Raw data

FLOCK 4H-271 66730U 25276BS  26263.19133824  .00003908  00000+0  17691-3 0  99902 66730  97.4089 335.3251 0001564  74.1016 286.0392 15.21474726 44870

JSON: /api/v1/satellites/66730 · /tle

For live sub-satellite position, see the globe view (requires WebGL).

§ Visibility from observer

Set your observer location to see the next 7 days of passes ≥ 10°. The values pass through the URL so the page stays shareable.

No JS? Fill the form by hand. The geolocation button needs JavaScript.